Flag for Canada Weather past 2 weeks in Corner Brook, Newfoundland and Labrador, Canada

Now
25 °F

Overcast.


Feels Like: 18 °F
Forecast: 15 / 28 °F
Wind: 6 mph from North

Location: Deer Lake

Current Time: Dec 20, 2014 at 10:00:42 PM

Latest Report: Dec 20, 2014 at 8:30 PM


Visibility: 15 mi

Pressure: 30.34 "Hg

Humidity: 86%

Dew point: 21 °F

Location of Corner BrookLocation

Historic Weather in Corner Brook — Graph

°F

Corner Brook temperature yesterday

Maximum temperature yesterday: 34 °F (at 12:30 AM)
Minimum temperature yesterday: 27 °F (at 7:30 PM)
Average temperature yesterday: 32 °F

Past Weeks' High & Low Weather Summary

 TemperatureHumidityPressure
High43 °F (Dec 14, 1:30 PM)100% (Dec 6, 10:30 PM)30.77 "Hg (Dec 6, 10:30 PM)
Low7 °F (Dec 8, 3:30 AM)59% (Dec 9, 2:30 PM)29.31 "Hg (Dec 19, 8:30 AM)
Average28 °F89%30.11 "Hg
* Reported Dec 5 8:30 PM — Dec 20 8:30 PM, Corner Brook, Weather by CustomWeather, © 2014

Note: Actual official high and low records may vary slightly from our data, if they occured in-between our weather recording intervals... More about our weather records

Advertising

Corner Brook weather history for previous 24 hours

 ConditionsComfort  
Time TempWeatherWind HumidityBarometerVisibility
8:30 PM
Dec 20
25 °FOvercast.6 mph86%30.34 "Hg15 mi
7:30 PM25 °FOvercast.5 mph86%30.34 "Hg15 mi
6:30 PM27 °FOvercast.3 mph80%30.33 "Hg15 mi
5:30 PM27 °FOvercast.5 mph80%30.31 "Hg15 mi
4:30 PM27 °FOvercast.5 mph80%30.29 "Hg15 mi
3:30 PM27 °FOvercast.3 mph86%30.27 "Hg15 mi
2:30 PM28 °FOvercast.7 mph69%30.26 "Hg15 mi
1:30 PM28 °FOvercast.8 mph74%30.26 "Hg15 mi
12:30 PM28 °FOvercast.10 mph74%30.25 "Hg15 mi
11:30 AM28 °FOvercast.8 mph80%30.25 "Hg15 mi
10:30 AM28 °FOvercast.5 mph80%30.26 "Hg15 mi
9:30 AM27 °FOvercast.6 mph86%30.24 "Hg15 mi
8:30 AM27 °FOvercast.7 mph80%30.23 "Hg15 mi
7:30 AM27 °FOvercast.6 mph80%30.20 "Hg15 mi
6:30 AM27 °FOvercast.3 mph86%30.17 "Hg15 mi
5:30 AM27 °FOvercast.8 mph80%30.12 "Hg15 mi
4:30 AM27 °FLight snow. Overcast.7 mph80%30.09 "Hg15 mi
2:30 AM27 °FLight snow. Overcast.8 mph86%30.05 "Hg15 mi
1:30 AM28 °FLight snow. Overcast.12 mph80%30.00 "Hg15 mi
12:30 AM28 °FLight snow. Mostly cloudy.9 mph86%29.96 "Hg15 mi
11:30 PM
Dec 19
30 °FLight snow. Overcast.10 mph86%29.92 "Hg15 mi
10:30 PM28 °FLight snow. Overcast.2 mph93%29.88 "Hg15 mi
Weather by CustomWeather, © 2014

See weather overviewHow to use our weather pages